Dirección General De Aeronáutica Civil

Dirección Meteorológica de Chile - Servicios Climáticos

Informe General de Control de Calidad de la Estación

Listado de niveles de control de calidad para algunos parámetros
Estación Isla Guafo faro (430003)
Fecha de Revisión de los datos :

Elementos

Registros Niveles de Control Total
Nivel 0 Nivel 1 Nivel 2 Nivel 3 Errores Porcentaje
01 Temperatura del Aire Seco 10.739 1 0.01 % 0 . 0 . 0 . 1 0.01 %
02 Temperatura de Rocío 10.740 0 . 0 . 0 . 0 . 0 0.00 %
03 Humedad Relativa del Aire 10.730 0 . 0 . 0 . 0 . 0 0.00 %
04 Temperatura Máxima PM 1.733 0 . 0 . 33 1.90 % 0 . 33 1.90 %
05 Temperatura Mínima AM 1.729 0 . 0 . 43 2.49 % 0 . 43 2.49 %
06 Viento a 10 m. de Altura 10.740 0 . 0 . 0 . 0 . 0 0.00 %
07 Agua Caida, Acumulada 6 Horas 5.374 0 . 239 4.45 % 0 . 0 . 239 4.45 %
08 Presión Atm. a Nivel de Estación (QFE) 10.740 0 . 1 0.01 % 0 . 0 . 1 0.01 %
09 Presión Atm. a Nivel Medio del Mar (QFF) 10.740 0 . 0 . 0 . 0 . 0 0.00 %
10 Tiempo Pasado Sinóptico 10.735 0 . 0 . 0 . 0 . 0 0.00 %
11 Tiempo Presente Sinóptico 10.735 0 . 16 0.15 % 0 . 0 . 16 0.15 %

Totales

94.735 . 0.0011 % . 0.2702 % . 0.0802 % . 0.0000 % 333 0.3515 %

Detalle de Errores Recientes

Fecha del Dato Descripción Información Error Fecha Ingreso
2024-01-31 12:00:00 rrr = trazas y WW = 10 w1=4 w2=4 0.0 2024-01-31 12:08:00
Total de Errores Recientes 1

Detalle de Errores Encontrados

Nivel Fecha del Dato Descripción Información Error Fecha Ingreso
0 2023-11-20 21:00:00 Ts (Temperatura Del Aire) debe ser numérico, entre -50.0 y 50.0 90.0 2023-11-20 21:09:00
Errores del Nivel 1
Nivel Fecha del Dato Descripción Información Error Fecha Ingreso
1 2020-12-27 18:00:00 (ts - td > 5.0) y ((ww >= 40 y ww <= 49)) 45 2020-12-27 18:02:00
1 2021-01-20 00:00:00 ts > 3.0 y ( (ww >= 48 y ww <= 49) o (ww >= 56 y ww <= 57) o (ww >=66 y ww <= 67)) 49 2021-01-20 00:20:00
1 2021-01-20 03:00:00 ts > 3.0 y ( (ww >= 48 y ww <= 49) o (ww >= 56 y ww <= 57) o (ww >=66 y ww <= 67)) 49 2021-01-20 03:46:00
1 2021-01-20 06:00:00 ts > 3.0 y ( (ww >= 48 y ww <= 49) o (ww >= 56 y ww <= 57) o (ww >=66 y ww <= 67)) 49 2021-01-20 05:48:00
1 2021-01-20 09:00:00 ts > 3.0 y ( (ww >= 48 y ww <= 49) o (ww >= 56 y ww <= 57) o (ww >=66 y ww <= 67)) 49 2021-01-20 08:45:00
1 2021-01-21 21:00:00 (ts - td > 5.0) y ((ww >= 40 y ww <= 49)) 45 2021-01-21 20:51:00
1 2021-09-10 12:00:00 ts > 3.0 y ( (ww >= 48 y ww <= 49) o (ww >= 56 y ww <= 57) o (ww >=66 y ww <= 67)) 67 2021-09-10 11:56:00
1 2022-03-23 15:00:00 (ts - td > 5.0) y ((ww >= 40 y ww <= 49)) 40 2022-03-23 14:55:00
1 2022-10-05 18:00:00 ts > 3.0 y ( (ww >= 48 y ww <= 49) o (ww >= 56 y ww <= 57) o (ww >=66 y ww <= 67)) 67 2022-10-06 09:29:00
1 2022-10-07 21:00:00 ts > 3.0 y ( (ww >= 48 y ww <= 49) o (ww >= 56 y ww <= 57) o (ww >=66 y ww <= 67)) 57 2022-10-07 20:53:00
1 2023-08-21 18:00:00 ts > 3.0 y ( (ww >= 48 y ww <= 49) o (ww >= 56 y ww <= 57) o (ww >=66 y ww <= 67)) 67 2023-08-21 18:07:00
1 2023-08-31 06:00:00 (ts - td > 5.0) y ((ww >= 40 y ww <= 49)) 40 2023-08-31 06:03:00
1 2023-09-03 06:00:00 ts > 3.0 y ( (ww >= 48 y ww <= 49) o (ww >= 56 y ww <= 57) o (ww >=66 y ww <= 67)) 56 2023-09-03 06:09:00
1 2023-10-19 09:00:00 ts > 3.0 y ( (ww >= 48 y ww <= 49) o (ww >= 56 y ww <= 57) o (ww >=66 y ww <= 67)) 56 2023-10-19 08:59:00
1 2023-11-07 06:00:00 ts > 3.0 y ( (ww >= 48 y ww <= 49) o (ww >= 56 y ww <= 57) o (ww >=66 y ww <= 67)) 56 2023-11-07 06:21:00
1 2023-11-07 09:00:00 ts > 3.0 y ( (ww >= 48 y ww <= 49) o (ww >= 56 y ww <= 57) o (ww >=66 y ww <= 67)) 56 2023-11-07 09:22:00
1 2020-06-18 00:00:00 rrr = 3.4 y WW = 2 w1=2 w2=0 3.4 2020-06-17 23:58:00
1 2020-06-19 06:00:00 rrr = s/p y WW = 1 w1=6 w2=6 0.0 2020-06-19 06:30:00
1 2020-06-20 06:00:00 rrr = s/p y WW = 50 w1=5 w2=0 0.0 2020-06-20 06:29:00
1 2020-06-21 06:00:00 rrr = 0.8 y WW = 2 w1=1 w2=0 0.8 2020-06-21 05:39:00
1 2020-06-22 12:00:00 rrr = s/p y WW = 1 w1=6 w2=6 0.0 2020-06-22 12:22:00
1 2020-06-25 00:00:00 rrr = s/p y WW = 1 w1=5 w2=0 0.0 2020-06-24 23:46:00
1 2020-06-25 18:00:00 rrr = 1.0 y WW = 2 w1=2 w2=2 1.0 2020-06-25 18:45:00
1 2020-07-01 12:00:00 rrr = s/p y WW = 2 w1=5 w2=5 0.0 2020-07-01 12:03:00
1 2020-07-01 18:00:00 rrr = 0.8 y WW = 2 w1=2 w2=2 0.8 2020-07-01 17:36:00
1 2020-07-06 12:00:00 rrr = s/p y WW = 51 w1=2 w2=0 0.0 2020-07-06 12:07:00
1 2020-07-08 18:00:00 rrr = 2.5 y WW = 3 w1=2 w2=0 2.5 2020-07-08 18:08:00
1 2020-07-09 00:00:00 rrr = s/p y WW = 2 w1=8 w2=2 0.0 2020-07-09 00:33:00
1 2020-07-11 06:00:00 rrr = s/p y WW = 1 w1=5 w2=1 0.0 2020-07-11 06:21:00
1 2020-07-11 18:00:00 rrr = s/p y WW = 2 w1=6 w2=0 0.0 2020-07-11 18:11:00
1 2020-07-12 06:00:00 rrr = s/p y WW = 3 w1=6 w2=6 0.0 2020-07-12 07:55:00
1 2020-07-17 12:00:00 rrr = s/p y WW = 10 w1=5 w2=4 0.0 2020-07-17 12:04:00
1 2020-07-18 00:00:00 rrr = s/p y WW = 20 w1=2 w2=2 0.0 2020-07-18 00:32:00
1 2020-07-26 12:00:00 rrr = 0.5 y WW = 1 w1=1 w2=0 0.5 2020-07-26 11:48:00
1 2020-07-28 12:00:00 rrr = 1.0 y WW = 10 w1=4 w2=0 1.0 2020-07-28 12:49:00
1 2020-08-03 00:00:00 rrr = 1.5 y WW = 2 w1=2 w2=2 1.5 2020-08-03 00:26:00
1 2020-08-03 18:00:00 rrr = s/p y WW = 2 w1=5 w2=0 0.0 2020-08-03 18:26:00
1 2020-08-07 06:00:00 rrr = s/p y WW = 2 w1=8 w2=2 0.0 2020-08-07 06:17:00
1 2020-08-08 06:00:00 rrr = s/p y WW = 63 w1=6 w2=5 0.0 2020-08-08 06:14:00
1 2020-08-08 18:00:00 rrr = s/p y WW = 1 w1=5 w2=2 0.0 2020-08-08 18:16:00
1 2020-08-09 18:00:00 rrr = s/p y WW = 2 w1=5 w2=2 0.0 2020-08-09 17:48:00
1 2020-08-11 12:00:00 rrr = s/p y WW = 3 w1=5 w2=0 0.0 2020-08-11 12:07:00
1 2020-08-12 06:00:00 rrr = s/p y WW = 2 w1=5 w2=1 0.0 2020-08-12 11:40:00
1 2020-08-17 00:00:00 rrr = s/p y WW = 3 w1=5 w2=2 0.0 2020-08-17 00:06:00
1 2020-08-17 12:00:00 rrr = 1.0 y WW = 10 w1=2 w2=2 1.0 2020-08-17 12:20:00
1 2020-08-19 06:00:00 rrr = s/p y WW = 1 w1=5 w2=2 0.0 2020-08-19 05:52:00
1 2020-08-25 12:00:00 rrr = trazas y WW = 1 w1=0 w2=0 0.0 2020-08-25 12:25:00
1 2020-08-26 00:00:00 rrr = s/p y WW = 2 w1=5 w2=2 0.0 2020-08-26 00:50:00
1 2020-08-29 12:00:00 rrr = 0.5 y WW = 3 w1=4 w2=0 0.5 2020-08-29 12:42:00
1 2020-08-30 00:00:00 rrr = s/p y WW = 2 w1=8 w2=0 0.0 2020-08-30 00:27:00
1 2020-08-30 06:00:00 rrr = s/p y WW = 3 w1=8 w2=0 0.0 2020-08-30 06:05:00
1 2020-09-08 00:00:00 rrr = s/p y WW = 50 w1=5 w2=2 0.0 2020-09-07 23:57:00
1 2020-09-14 06:00:00 rrr = 2.0 y WW = 2 w1=2 w2=2 2.0 2020-09-14 05:51:00
1 2020-09-15 06:00:00 rrr = 1.2 y WW = 10 w1=4 w2=4 1.2 2020-09-15 06:07:00
1 2020-09-17 06:00:00 rrr = s/p y WW = 51 w1=2 w2=2 0.0 2020-09-17 05:50:00
1 2020-09-17 18:00:00 rrr = s/p y WW = 3 w1=5 w2=0 0.0 2020-09-17 18:02:00
1 2020-09-24 18:00:00 rrr = 1.5 y WW = 2 w1=4 w2=2 1.5 2020-09-24 18:36:00
1 2020-09-28 06:00:00 rrr = s/p y WW = 2 w1=5 w2=2 0.0 2020-09-28 06:03:00
1 2020-09-29 18:00:00 rrr = 0.2 y WW = 1 w1=2 w2=2 0.2 2020-09-29 18:34:00
1 2020-10-01 12:00:00 rrr = 0.1 y WW = 3 w1=2 w2=2 0.1 2020-10-01 11:46:00
1 2020-10-05 00:00:00 rrr = s/p y WW = 51 w1=5 w2=2 0.0 2020-10-05 00:17:00
1 2020-10-05 12:00:00 rrr = s/p y WW = 3 w1=5 w2=2 0.0 2020-10-05 12:15:00
1 2020-10-05 18:00:00 rrr = s/p y WW = 63 w1=2 w2=2 0.0 2020-10-05 17:58:00
1 2020-10-06 12:00:00 rrr = s/p y WW = 20 w1=2 w2=2 0.0 2020-10-06 11:52:00
1 2020-10-08 06:00:00 rrr = 0.1 y WW = 2 w1=2 w2=2 0.1 2020-10-08 05:44:00
1 2020-10-09 18:00:00 rrr = 3.7 y WW = 2 w1=4 w2=4 3.7 2020-10-09 18:04:00
1 2020-10-10 06:00:00 rrr = 1.4 y WW = 10 w1=4 w2=4 1.4 2020-10-10 06:02:00
1 2020-10-12 12:00:00 rrr = 0.5 y WW = 2 w1=2 w2=2 0.5 2020-10-12 11:57:00
1 2020-10-13 06:00:00 rrr = 0.2 y WW = 5 w1=4 w2=2 0.2 2020-10-13 06:07:00
1 2020-10-13 12:00:00 rrr = 0.7 y WW = 2 w1=4 w2=2 0.7 2020-10-13 12:13:00
1 2020-10-17 12:00:00 rrr = 0.8 y WW = 5 w1=2 w2=2 0.8 2020-10-17 11:54:00
1 2020-10-18 06:00:00 rrr = 0.2 y WW = 5 w1=0 w2=0 0.2 2020-10-18 06:03:00
1 2020-10-19 12:00:00 rrr = 0.4 y WW = 3 w1=0 w2=0 0.4 2020-10-19 12:14:00
1 2020-10-24 18:00:00 rrr = s/p y WW = 25 w1=8 w2=2 0.0 2020-10-24 21:47:00
1 2020-10-25 12:00:00 rrr = 3.5 y WW = 2 w1=2 w2=2 3.5 2020-10-25 12:02:00
1 2020-10-26 18:00:00 rrr = 6.0 y WW = 3 w1=2 w2=1 6.0 2020-10-26 17:59:00
1 2020-11-05 00:00:00 rrr = s/p y WW = 25 w1=8 w2=2 0.0 2020-11-05 00:05:00
1 2020-11-05 06:00:00 rrr = s/p y WW = 11 w1=6 w2=4 0.0 2020-11-05 06:00:00
1 2020-11-05 12:00:00 rrr = 4.0 y WW = 3 w1=2 w2=1 4.0 2020-11-05 12:10:00
1 2020-11-13 12:00:00 rrr = 2.2 y WW = 3 w1=4 w2=2 2.2 2020-11-13 12:05:00
1 2020-11-14 00:00:00 rrr = 0.3 y WW = 2 w1=2 w2=2 0.3 2020-11-13 23:57:00
1 2020-11-14 06:00:00 rrr = s/p y WW = 1 w1=6 w2=0 0.0 2020-11-14 05:51:00
1 2020-11-21 06:00:00 rrr = 2.5 y WW = 2 w1=2 w2=2 2.5 2020-11-21 05:59:00
1 2020-11-25 12:00:00 rrr = 5.0 y WW = 3 w1=2 w2=2 5.0 2020-11-25 11:48:00
1 2020-11-28 00:00:00 rrr = 0.3 y WW = 2 w1=2 w2=2 0.3 2020-11-28 00:01:00
1 2020-12-14 12:00:00 rrr = s/p y WW = 1 w1=6 w2=2 0.0 2020-12-14 11:53:00
1 2020-12-17 12:00:00 rrr = s/p y WW = 2 w1=5 w2=2 0.0 2020-12-17 12:05:00
1 2020-12-19 06:00:00 rrr = trazas y WW = 2 w1=2 w2=2 0.0 2020-12-19 05:59:00
1 2020-12-27 00:00:00 rrr = trazas y WW = 2 w1=2 w2=2 0.0 2020-12-27 01:00:00
1 2020-12-28 00:00:00 rrr = trazas y WW = 16 w1=2 w2=2 0.0 2020-12-28 00:02:00
1 2020-12-29 12:00:00 rrr = 9.0 y WW = 2 w1=4 w2=2 9.0 2020-12-29 11:57:00
1 2021-01-01 12:00:00 rrr = trazas y WW = 1 w1=2 w2=1 0.0 2021-01-01 11:56:00
1 2021-01-01 12:00:00 rrr = trazas y WW = 1 w1=2 w2=1 0.0 2021-01-01 11:56:00
1 2021-01-03 00:00:00 rrr = s/p y WW = 1 w1=6 w2=2 0.0 2021-01-03 01:55:00
1 2021-01-09 12:00:00 rrr = s/p y WW = 25 w1=6 w2=5 0.0 2021-01-09 12:12:00
1 2021-01-20 12:00:00 rrr = 0.3 y WW = 1 w1=4 w2=4 0.3 2021-01-20 12:01:00
1 2021-01-25 12:00:00 rrr = 1.0 y WW = 1 w1=2 w2=1 1.0 2021-01-25 12:08:00
1 2021-02-11 12:00:00 rrr = 0.6 y WW = 2 w1=4 w2=4 0.6 2021-02-11 12:29:00
1 2021-02-13 18:00:00 rrr = s/p y WW = 1 w1=5 w2=2 0.0 2021-02-13 18:00:00
1 2021-02-20 12:00:00 rrr = s/p y WW = 2 w1=8 w2=2 0.0 2021-02-22 12:43:00
1 2021-02-21 06:00:00 rrr = s/p y WW = 25 w1=2 w2=2 0.0 2021-02-22 16:44:00
1 2021-03-07 06:00:00 rrr = s/p y WW = 1 w1=5 w2=2 0.0 2021-03-07 06:13:00
1 2021-03-08 00:00:00 rrr = s/p y WW = 1 w1=8 w2=2 0.0 2021-03-08 00:01:00
1 2021-03-10 12:00:00 rrr = 14.4 y WW = 3 w1=3 w2=2 14.4 2021-03-10 12:51:00
1 2021-03-12 06:00:00 rrr = s/p y WW = 2 w1=5 w2=2 0.0 2021-03-12 06:10:00
1 2021-03-20 18:00:00 rrr = s/p y WW = 3 w1=5 w2=2 0.0 2021-03-20 19:25:00
1 2021-03-23 06:00:00 rrr = s/p y WW = 51 w1=2 w2=0 0.0 2021-03-23 06:32:00
1 2021-04-07 18:00:00 rrr = s/p y WW = 1 w1=8 w2=8 0.0 2021-04-07 17:48:00
1 2021-04-10 18:00:00 rrr = s/p y WW = 51 w1=2 w2=2 0.0 2021-04-10 18:22:00
1 2021-04-14 18:00:00 rrr = s/p y WW = 2 w1=5 w2=0 0.0 2021-04-14 18:23:00
1 2021-04-17 18:00:00 rrr = 0.3 y WW = 1 w1=4 w2=4 0.3 2021-04-17 18:17:00
1 2021-04-19 18:00:00 rrr = s/p y WW = 2 w1=6 w2=2 0.0 2021-04-19 19:23:00
1 2021-04-20 18:00:00 rrr = 1.9 y WW = 2 w1=2 w2=2 1.9 2021-04-20 18:12:00
1 2021-05-03 06:00:00 rrr = s/p y WW = 1 w1=8 w2=6 0.0 2021-05-03 06:05:00
1 2021-05-14 12:00:00 rrr = s/p y WW = 25 w1=5 w2=5 0.0 2021-05-14 12:02:00
1 2021-05-14 18:00:00 rrr = s/p y WW = 2 w1=8 w2=0 0.0 2021-05-14 18:53:00
1 2021-05-16 12:00:00 rrr = 5.0 y WW = 2 w1=2 w2=2 5.0 2021-05-16 12:03:00
1 2021-05-18 12:00:00 rrr = 1.5 y WW = 10 w1=4 w2=4 1.5 2021-05-18 12:19:00
1 2021-05-20 18:00:00 rrr = s/p y WW = 2 w1=5 w2=2 0.0 2021-05-20 18:18:00
1 2021-05-21 18:00:00 rrr = s/p y WW = 64 w1=6 w2=5 0.0 2021-05-21 20:31:00
1 2021-05-22 06:00:00 rrr = s/p y WW = 2 w1=5 w2=2 0.0 2021-05-22 05:59:00
1 2021-05-24 06:00:00 rrr = 0.5 y WW = 2 w1=4 w2=4 0.5 2021-05-24 06:29:00
1 2021-05-26 00:00:00 rrr = s/p y WW = 53 w1=6 w2=5 0.0 2021-05-26 01:47:00
1 2021-05-27 12:00:00 rrr = s/p y WW = 3 w1=6 w2=0 0.0 2021-05-27 11:34:00
1 2021-05-29 06:00:00 rrr = 1.0 y WW = 5 w1=2 w2=2 1.0 2021-05-29 06:02:00
1 2021-06-01 12:00:00 rrr = 2.0 y WW = 2 w1=2 w2=2 2.0 2021-06-01 12:03:00
1 2021-06-07 12:00:00 rrr = s/p y WW = 2 w1=5 w2=2 0.0 2021-06-07 11:54:00
1 2021-06-09 12:00:00 rrr = 0.9 y WW = 3 w1=1 w2=0 0.9 2021-06-09 12:28:00
1 2021-06-11 12:00:00 rrr = 7.0 y WW = 10 w1=4 w2=4 7.0 2021-06-11 12:19:00
1 2021-06-30 00:00:00 rrr = 0.5 y WW = 12 w1=2 w2=2 0.5 2021-06-30 00:19:00
1 2021-07-01 12:00:00 rrr = s/p y WW = 2 w1=6 w2=2 0.0 2021-07-01 12:44:00
1 2021-07-02 12:00:00 rrr = 2.1 y WW = 2 w1=2 w2=2 2.1 2021-07-02 18:46:00
1 2021-07-04 00:00:00 rrr = s/p y WW = 46 w1=5 w2=5 0.0 2021-07-03 23:59:00
1 2021-07-06 12:00:00 rrr = s/p y WW = 20 w1=5 w2=5 0.0 2021-07-06 12:40:00
1 2021-07-13 12:00:00 rrr = 2.8 y WW = 10 w1=4 w2=2 2.8 2021-07-13 11:56:00
1 2021-07-30 12:00:00 rrr = s/p y WW = 3 w1=6 w2=6 0.0 2021-07-30 12:19:00
1 2021-08-14 00:00:00 rrr = 1.5 y WW = 28 w1=1 w2=1 1.5 2021-08-14 00:02:00
1 2021-08-14 06:00:00 rrr = s/p y WW = 45 w1=5 w2=2 0.0 2021-08-14 06:19:00
1 2021-08-16 00:00:00 rrr = s/p y WW = 2 w1=5 w2=2 0.0 2021-08-16 00:07:00
1 2021-08-16 12:00:00 rrr = s/p y WW = 10 w1=5 w2=4 0.0 2021-08-16 12:18:00
1 2021-08-18 18:00:00 rrr = s/p y WW = 1 w1=5 w2=0 0.0 2021-08-18 17:46:00
1 2021-08-19 00:00:00 rrr = s/p y WW = 1 w1=6 w2=0 0.0 2021-08-19 00:24:00
1 2021-08-30 06:00:00 rrr = s/p y WW = 45 w1=6 w2=4 0.0 2021-08-30 12:42:00
1 2021-09-07 00:00:00 rrr = s/p y WW = 1 w1=5 w2=2 0.0 2021-09-06 23:54:00
1 2021-09-11 00:00:00 rrr = s/p y WW = 20 w1=6 w2=6 0.0 2021-09-11 00:16:00
1 2021-09-15 06:00:00 rrr = s/p y WW = 3 w1=5 w2=2 0.0 2021-09-15 05:59:00
1 2021-09-16 12:00:00 rrr = s/p y WW = 44 w1=5 w2=2 0.0 2021-09-16 12:12:00
1 2021-09-22 12:00:00 rrr = s/p y WW = 45 w1=5 w2=5 0.0 2021-09-22 11:47:00
1 2021-09-23 12:00:00 rrr = s/p y WW = 45 w1=5 w2=2 0.0 2021-09-23 11:40:00
1 2021-09-25 00:00:00 rrr = trazas y WW = 10 w1=2 w2=2 0.0 2021-09-25 00:21:00
1 2021-09-26 18:00:00 rrr = 0.6 y WW = 1 w1=2 w2=2 0.6 2021-09-27 12:07:00
1 2021-10-10 06:00:00 rrr = s/p y WW = 51 w1=4 w2=4 0.0 2021-10-10 05:57:00
1 2021-10-15 18:00:00 rrr = s/p y WW = 25 w1=2 w2=2 0.0 2021-10-15 18:12:00
1 2021-10-25 00:00:00 rrr = 1.0 y WW = 10 w1=4 w2=2 1.0 2021-10-25 05:07:00
1 2021-11-15 06:00:00 rrr = s/p y WW = 3 w1=5 w2=2 0.0 2021-11-15 05:59:00
1 2021-11-15 18:00:00 rrr = trazas y WW = 2 w1=2 w2=1 0.0 2021-11-15 18:00:00
1 2021-12-12 06:00:00 rrr = s/p y WW = 1 w1=8 w2=2 0.0 2021-12-12 06:03:00
1 2022-01-01 18:00:00 rrr = 2.2 y WW = 2 w1=2 w2=2 2.2 2022-01-02 13:26:00
1 2022-01-01 18:00:00 rrr = 2.2 y WW = 2 w1=2 w2=2 2.2 2022-01-02 13:26:00
1 2022-01-10 12:00:00 rrr = s/p y WW = 1 w1=5 w2=2 0.0 2022-01-10 13:31:00
1 2022-01-14 00:00:00 rrr = s/p y WW = 10 w1=5 w2=2 0.0 2022-01-13 23:45:00
1 2022-01-17 18:00:00 rrr = 4.0 y WW = 1 w1=2 w2=1 4.0 2022-01-17 18:08:00
1 2022-01-21 00:00:00 rrr = s/p y WW = 2 w1=6 w2=2 0.0 2022-01-21 00:22:00
1 2022-01-22 12:00:00 rrr = s/p y WW = 2 w1=6 w2=2 0.0 2022-01-22 12:57:00
1 2022-01-23 00:00:00 rrr = s/p y WW = 65 w1=6 w2=2 0.0 2022-01-23 00:08:00
1 2022-01-30 00:00:00 rrr = s/p y WW = 2 w1=8 w2=2 0.0 2022-01-29 23:59:00
1 2022-02-01 06:00:00 rrr = s/p y WW = 20 w1=2 w2=2 0.0 2022-02-01 08:58:00
1 2022-02-01 18:00:00 rrr = s/p y WW = 10 w1=5 w2=2 0.0 2022-02-01 17:59:00
1 2022-02-08 00:00:00 rrr = s/p y WW = 51 w1=2 w2=2 0.0 2022-02-07 23:56:00
1 2022-02-08 06:00:00 rrr = s/p y WW = 1 w1=5 w2=2 0.0 2022-02-08 06:29:00
1 2022-02-26 06:00:00 rrr = s/p y WW = 2 w1=8 w2=1 0.0 2022-02-26 06:01:00
1 2022-02-27 12:00:00 rrr = s/p y WW = 3 w1=5 w2=2 0.0 2022-02-27 12:15:00
1 2022-02-27 18:00:00 rrr = s/p y WW = 60 w1=8 w2=2 0.0 2022-02-27 18:36:00
1 2022-03-02 00:00:00 rrr = s/p y WW = 2 w1=5 w2=2 0.0 2022-03-02 01:57:00
1 2022-03-05 06:00:00 rrr = s/p y WW = 2 w1=5 w2=0 0.0 2022-03-05 06:23:00
1 2022-03-07 00:00:00 rrr = 0.2 y WW = 28 w1=4 w2=4 0.2 2022-03-06 23:52:00
1 2022-03-07 12:00:00 rrr = 0.3 y WW = 1 w1=4 w2=2 0.3 2022-03-07 12:06:00
1 2022-03-09 12:00:00 rrr = s/p y WW = 20 w1=5 w2=0 0.0 2022-03-09 12:31:00
1 2022-03-09 18:00:00 rrr = s/p y WW = 2 w1=5 w2=2 0.0 2022-03-09 18:20:00
1 2022-03-16 06:00:00 rrr = s/p y WW = 3 w1=5 w2=2 0.0 2022-03-16 06:24:00
1 2022-03-21 12:00:00 rrr = s/p y WW = 21 w1=2 w2=2 0.0 2022-03-21 12:08:00
1 2022-03-21 18:00:00 rrr = s/p y WW = 40 w1=6 w2=4 0.0 2022-03-21 18:00:00
1 2022-03-25 18:00:00 rrr = s/p y WW = 2 w1=5 w2=2 0.0 2022-03-25 18:15:00
1 2022-03-26 12:00:00 rrr = 0.1 y WW = 2 w1=4 w2=2 0.1 2022-03-26 13:01:00
1 2022-03-28 12:00:00 rrr = s/p y WW = 21 w1=8 w2=2 0.0 2022-03-28 12:14:00
1 2022-03-29 12:00:00 rrr = s/p y WW = 2 w1=5 w2=5 0.0 2022-03-29 12:40:00
1 2022-04-02 12:00:00 rrr = s/p y WW = 20 w1=6 w2=5 0.0 2022-04-02 12:35:00
1 2022-04-03 06:00:00 rrr = s/p y WW = 1 w1=6 w2=1 0.0 2022-04-03 05:59:00
1 2022-04-06 06:00:00 rrr = s/p y WW = 46 w1=6 w2=2 0.0 2022-04-06 05:58:00
1 2022-04-06 18:00:00 rrr = s/p y WW = 53 w1=4 w2=4 0.0 2022-04-06 18:01:00
1 2022-04-07 00:00:00 rrr = s/p y WW = 47 w1=5 w2=4 0.0 2022-04-07 00:26:00
1 2022-04-07 12:00:00 rrr = s/p y WW = 2 w1=5 w2=4 0.0 2022-04-07 12:19:00
1 2022-04-10 00:00:00 rrr = s/p y WW = 2 w1=6 w2=2 0.0 2022-04-10 05:11:00
1 2022-04-13 12:00:00 rrr = 0.1 y WW = 10 w1=4 w2=2 0.1 2022-04-13 11:59:00
1 2022-04-21 06:00:00 rrr = s/p y WW = 81 w1=8 w2=8 0.0 2022-04-21 05:57:00
1 2022-04-23 00:00:00 rrr = s/p y WW = 50 w1=6 w2=4 0.0 2022-04-23 00:26:00
1 2022-04-25 00:00:00 rrr = s/p y WW = 1 w1=7 w2=7 0.0 2022-04-25 00:12:00
1 2022-04-26 18:00:00 rrr = s/p y WW = 2 w1=6 w2=2 0.0 2022-04-26 18:58:00
1 2022-04-27 00:00:00 rrr = 0.3 y WW = 3 w1=2 w2=1 0.3 2022-04-27 01:57:00
1 2022-04-28 12:00:00 rrr = 2.0 y WW = 2 w1=2 w2=2 2.0 2022-04-28 11:55:00
1 2022-05-05 00:00:00 rrr = s/p y WW = 1 w1=5 w2=2 0.0 2022-05-05 00:37:00
1 2022-05-13 06:00:00 rrr = s/p y WW = 1 w1=6 w2=2 0.0 2022-05-13 06:09:00
1 2022-06-14 06:00:00 rrr = s/p y WW = 2 w1=8 w2=2 0.0 2022-06-14 06:30:00
1 2022-07-22 00:00:00 rrr = s/p y WW = 1 w1=6 w2=2 0.0 2022-07-22 00:14:00
1 2022-08-14 12:00:00 rrr = s/p y WW = 3 w1=9 w2=5 0.0 2022-08-14 14:15:00
1 2022-08-17 00:00:00 rrr = 0.5 y WW = 10 w1=2 w2=2 0.5 2022-08-17 00:57:00
1 2022-08-17 12:00:00 rrr = 0.4 y WW = 2 w1=2 w2=2 0.4 2022-08-17 12:46:00
1 2022-08-25 18:00:00 rrr = s/p y WW = 2 w1=5 w2=2 0.0 2022-08-25 17:55:00
1 2022-10-07 18:00:00 rrr = s/p y WW = 27 w1=6 w2=2 0.0 2022-10-07 18:07:00
1 2022-10-14 18:00:00 rrr = s/p y WW = 1 w1=5 w2=0 0.0 2022-10-14 17:52:00
1 2022-11-26 00:00:00 rrr = s/p y WW = 1 w1=5 w2=1 0.0 2022-11-26 00:09:00
1 2023-02-03 06:00:00 rrr = s/p y WW = 2 w1=5 w2=4 0.0 2023-02-03 09:44:00
1 2023-02-08 18:00:00 rrr = s/p y WW = 44 w1=5 w2=4 0.0 2023-02-08 17:57:00
1 2023-02-15 12:00:00 rrr = 1.1 y WW = 3 w1=2 w2=2 1.1 2023-02-15 11:40:00
1 2023-02-25 12:00:00 rrr = 11.8 y WW = 3 w1=2 w2=0 11.8 2023-02-25 12:14:00
1 2023-02-27 00:00:00 rrr = 0.5 y WW = 1 w1=2 w2=2 0.5 2023-02-26 23:51:00
1 2023-03-02 12:00:00 rrr = 0.3 y WW = 2 w1=2 w2=2 0.3 2023-03-02 12:01:00
1 2023-03-03 00:00:00 rrr = s/p y WW = 1 w1=5 w2=5 0.0 2023-03-03 00:03:00
1 2023-03-28 12:00:00 rrr = s/p y WW = 1 w1=6 w2=2 0.0 2023-03-28 11:49:00
1 2023-04-16 00:00:00 rrr = s/p y WW = 25 w1=2 w2=2 0.0 2023-04-24 16:40:00
1 2023-04-21 06:00:00 rrr = s/p y WW = 51 w1=2 w2=2 0.0 2023-04-21 06:36:00
1 2023-04-21 18:00:00 rrr = 0.2 y WW = 2 w1=2 w2=1 0.2 2023-04-21 17:59:00
1 2023-05-02 00:00:00 rrr = s/p y WW = 2 w1=5 w2=2 0.0 2023-05-01 23:55:00
1 2023-05-03 00:00:00 rrr = s/p y WW = 2 w1=5 w2=2 0.0 2023-05-03 00:11:00
1 2023-05-08 12:00:00 rrr = trazas y WW = 3 w1=2 w2=1 0.0 2023-05-08 12:17:00
1 2023-06-03 18:00:00 rrr = s/p y WW = 2 w1=5 w2=2 0.0 2023-06-03 19:05:00
1 2023-06-05 18:00:00 rrr = s/p y WW = 62 w1=6 w2=6 0.0 2023-06-05 18:01:00
1 2023-06-10 18:00:00 rrr = s/p y WW = 3 w1=8 w2=0 0.0 2023-06-10 18:02:00
1 2023-06-11 18:00:00 rrr = trazas y WW = 2 w1=2 w2=2 0.0 2023-06-11 18:02:00
1 2023-06-13 12:00:00 rrr = s/p y WW = 2 w1=5 w2=2 0.0 2023-06-13 12:12:00
1 2023-06-22 06:00:00 rrr = s/p y WW = 2 w1=6 w2=2 0.0 2023-06-22 06:17:00
1 2023-06-27 18:00:00 rrr = s/p y WW = 2 w1=6 w2=2 0.0 2023-06-27 18:16:00
1 2023-07-09 00:00:00 rrr = s/p y WW = 2 w1=5 w2=4 0.0 2023-07-09 00:01:00
1 2023-07-15 00:00:00 rrr = 0.4 y WW = 1 w1=2 w2=1 0.4 2023-07-14 23:57:00
1 2023-07-29 06:00:00 rrr = 0.3 y WW = 1 w1=4 w2=4 0.3 2023-07-29 07:24:00
1 2023-08-02 06:00:00 rrr = 1.1 y WW = 3 w1=2 w2=0 1.1 2023-08-02 06:31:00
1 2023-08-03 18:00:00 rrr = 0.1 y WW = 1 w1=2 w2=1 0.1 2023-08-03 18:19:00
1 2023-08-11 00:00:00 rrr = s/p y WW = 28 w1=8 w2=2 0.0 2023-08-11 00:13:00
1 2023-08-21 06:00:00 rrr = s/p y WW = 1 w1=5 w2=5 0.0 2023-08-21 06:01:00
1 2023-08-22 12:00:00 rrr = s/p y WW = 3 w1=8 w2=2 0.0 2023-08-22 12:06:00
1 2023-08-27 06:00:00 rrr = s/p y WW = 40 w1=5 w2=4 0.0 2023-08-27 06:10:00
1 2023-08-31 00:00:00 rrr = 0.4 y WW = 40 w1=4 w2=2 0.4 2023-08-31 00:24:00
1 2023-09-03 12:00:00 rrr = s/p y WW = 1 w1=5 w2=2 0.0 2023-09-03 12:17:00
1 2023-09-12 18:00:00 rrr = s/p y WW = 2 w1=5 w2=2 0.0 2023-09-12 18:03:00
1 2023-09-13 12:00:00 rrr = 0.5 y WW = 2 w1=2 w2=0 0.5 2023-09-13 12:29:00
1 2023-10-06 06:00:00 rrr = 2.0 y WW = 10 w1=4 w2=4 2.0 2023-10-06 06:42:00
1 2023-10-10 06:00:00 rrr = 0.6 y WW = 10 w1=4 w2=4 0.6 2023-10-10 06:26:00
1 2023-10-25 12:00:00 rrr = 0.2 y WW = 40 w1=2 w2=1 0.2 2023-10-25 11:53:00
1 2023-11-08 06:00:00 rrr = 2.0 y WW = 1 w1=0 w2=0 2.0 2023-11-08 06:13:00
1 2023-11-17 18:00:00 rrr = s/p y WW = 3 w1=6 w2=2 0.0 2023-11-17 18:08:00
1 2023-11-19 00:00:00 rrr = s/p y WW = 1 w1=5 w2=2 0.0 2023-11-19 00:03:00
1 2023-11-21 00:00:00 rrr = 0.5 y WW = 15 w1=2 w2=2 0.5 2023-11-21 00:58:00
1 2023-11-23 06:00:00 rrr = s/p y WW = 2 w1=5 w2=2 0.0 2023-11-23 09:21:00
1 2023-12-01 12:00:00 rrr = s/p y WW = 1 w1=5 w2=5 0.0 2023-12-01 12:19:00
1 2024-01-31 12:00:00 rrr = trazas y WW = 10 w1=4 w2=4 0.0 2024-01-31 12:08:00
1 2022-06-09 15:00:00 qfe debe ser menor o igual a qff 1015.0 - 1013.5 2022-06-09 14:52:00
Errores del Nivel 256
Nivel Fecha del Dato Descripción Información Error Fecha Ingreso
2 2021-02-20 00:00:00 Temperatura 13.0 del 19-02-2021 21:00, Mayor que la Máxima 11.4 20-02-2021 00:00 13.0 -- 11.4 2021-02-20 03:32:00
2 2021-02-25 00:00:00 Temperatura 14.0 del 24-02-2021 18:00, Mayor que la Máxima 12.4 25-02-2021 00:00 14.0 -- 12.4 2021-02-25 00:31:00
2 2021-06-16 00:00:00 Temperatura 13.2 del 15-06-2021 15:00, Mayor que la Máxima 10.0 16-06-2021 00:00 13.2 -- 10.0 2021-06-16 00:01:00
2 2021-07-01 00:00:00 Temperatura 9.2 del 30-06-2021 15:00, Mayor que la Máxima 9.0 01-07-2021 00:00 9.2 -- 9.0 2021-06-30 23:57:00
2 2021-09-22 00:00:00 Temperatura 8.8 del 21-09-2021 15:00, Mayor que la Máxima 8.0 22-09-2021 00:00 8.8 -- 8.0 2021-09-22 00:20:00
2 2021-10-25 00:00:00 Temperatura 11.0 del 24-10-2021 18:00, Mayor que la Máxima 10.0 25-10-2021 00:00 11.0 -- 10.0 2021-10-25 05:07:00
2 2021-11-25 00:00:00 Temperatura 13.2 del 24-11-2021 18:00, Mayor que la Máxima 13.0 25-11-2021 00:00 13.2 -- 13.0 2021-11-25 00:03:00
2 2022-01-10 00:00:00 Temperatura 15.2 del 09-01-2022 21:00, Mayor que la Máxima 15.0 10-01-2022 00:00 15.2 -- 15.0 2022-01-10 01:38:00
2 2022-02-08 00:00:00 Temperatura 16.8 del 07-02-2022 15:00, Mayor que la Máxima 16.2 08-02-2022 00:00 16.8 -- 16.2 2022-02-07 23:56:00
2 2022-05-10 00:00:00 Temperatura 12.8 del 09-05-2022 18:00, Mayor que la Máxima 12.5 10-05-2022 00:00 12.8 -- 12.5 2022-05-09 23:58:00
2 2022-06-01 00:00:00 Temperatura 6.4 del 31-05-2022 18:00, Mayor que la Máxima 4.6 01-06-2022 00:00 6.4 -- 4.6 2022-06-01 00:07:00
2 2022-06-05 00:00:00 Temperatura 10.8 del 04-06-2022 21:00, Mayor que la Máxima 10.5 05-06-2022 00:00 10.8 -- 10.5 2022-06-05 00:34:00
2 2022-06-11 00:00:00 Temperatura 9.0 del 10-06-2022 18:00, Mayor que la Máxima 8.9 11-06-2022 00:00 9.0 -- 8.9 2022-06-11 00:07:00
2 2022-06-16 00:00:00 Temperatura 10.4 del 15-06-2022 15:00, Mayor que la Máxima 10.2 16-06-2022 00:00 10.4 -- 10.2 2022-06-16 00:15:00
2 2022-06-17 00:00:00 Temperatura 9.8 del 16-06-2022 15:00, Mayor que la Máxima 9.0 17-06-2022 00:00 9.8 -- 9.0 2022-06-16 23:50:00
2 2022-08-25 00:00:00 Temperatura 8.1 del 24-08-2022 21:00, Mayor que la Máxima 7.8 25-08-2022 00:00 8.1 -- 7.8 2022-08-25 00:03:00
2 2022-09-02 00:00:00 Temperatura 9.6 del 01-09-2022 18:00, Mayor que la Máxima 9.4 02-09-2022 00:00 9.6 -- 9.4 2022-09-06 13:18:00
2 2022-09-15 00:00:00 Temperatura 10.0 del 14-09-2022 15:00, Mayor que la Máxima 9.5 15-09-2022 00:00 10.0 -- 9.5 2022-09-15 00:07:00
2 2022-10-03 00:00:00 Temperatura 10.8 del 02-10-2022 15:00, Mayor que la Máxima 10.5 03-10-2022 00:00 10.8 -- 10.5 2022-10-03 00:35:00
2 2022-11-29 00:00:00 Temperatura 16.0 del 28-11-2022 21:00, Mayor que la Máxima 15.6 29-11-2022 00:00 16.0 -- 15.6 2022-11-29 03:48:00
2 2023-01-26 00:00:00 Temperatura 14.5 del 25-01-2023 15:00, Mayor que la Máxima 14.0 26-01-2023 00:00 14.5 -- 14.0 2023-01-26 00:00:00
2 2023-01-27 00:00:00 Temperatura 14.9 del 26-01-2023 18:00, Mayor que la Máxima 14.0 27-01-2023 00:00 14.9 -- 14.0 2023-01-27 00:21:00
2 2023-01-30 00:00:00 Temperatura 17.4 del 29-01-2023 21:00, Mayor que la Máxima 17.3 30-01-2023 00:00 17.4 -- 17.3 2023-01-29 23:54:00
2 2023-03-31 00:00:00 Temperatura 10.2 del 30-03-2023 15:00, Mayor que la Máxima 8.0 31-03-2023 00:00 10.2 -- 8.0 2023-03-31 00:04:00
2 2023-04-03 00:00:00 Temperatura 14.0 del 02-04-2023 21:00, Mayor que la Máxima 13.0 03-04-2023 00:00 14.0 -- 13.0 2023-04-03 00:10:00
2 2023-05-01 00:00:00 Temperatura 10.0 del 30-04-2023 15:00, Mayor que la Máxima 9.0 01-05-2023 00:00 10.0 -- 9.0 2023-05-01 00:23:00
2 2023-05-19 00:00:00 Temperatura 11.0 del 18-05-2023 15:00, Mayor que la Máxima 9.5 19-05-2023 00:00 11.0 -- 9.5 2023-05-19 03:04:00
2 2023-06-30 00:00:00 Temperatura 12.0 del 29-06-2023 18:00, Mayor que la Máxima 10.0 30-06-2023 00:00 12.0 -- 10.0 2023-06-30 00:42:00
2 2023-07-12 00:00:00 Temperatura 10.0 del 11-07-2023 18:00, Mayor que la Máxima 8.5 12-07-2023 00:00 10.0 -- 8.5 2023-07-12 00:00:00
2 2023-11-21 00:00:00 Temperatura 90.0 del 20-11-2023 21:00, Mayor que la Máxima 11.3 21-11-2023 00:00 90.0 -- 11.3 2023-11-21 00:58:00
2 2023-12-09 00:00:00 Temperatura 9.8 del 08-12-2023 18:00, Mayor que la Máxima 9.5 09-12-2023 00:00 9.8 -- 9.5 2023-12-09 00:09:00
2 2023-12-15 00:00:00 Temperatura 11.0 del 14-12-2023 21:00, Mayor que la Máxima 9.8 15-12-2023 00:00 11.0 -- 9.8 2023-12-19 01:50:00
2 2023-12-16 00:00:00 Temperatura 10.6 del 15-12-2023 18:00, Mayor que la Máxima 9.8 16-12-2023 00:00 10.6 -- 9.8 2023-12-16 00:19:00
2 2021-02-09 12:00:00 Temperatura 12.0 del 09-02-2021 03:00, Menor que la Mínima 13.0 09-02-2021 12:00 12.0 -- 13.0 2021-02-09 11:59:00
2 2021-08-24 12:00:00 Temperatura 4.4 del 24-08-2021 09:00, Menor que la Mínima 6.0 24-08-2021 12:00 4.4 -- 6.0 2021-08-24 12:01:00
2 2021-09-10 12:00:00 Temperatura 7.4 del 10-09-2021 06:00, Menor que la Mínima 9.0 10-09-2021 12:00 7.4 -- 9.0 2021-09-10 11:56:00
2 2021-10-13 12:00:00 Temperatura 9.4 del 13-10-2021 03:00, Menor que la Mínima 9.5 13-10-2021 12:00 9.4 -- 9.5 2021-10-13 12:43:00
2 2021-10-21 12:00:00 Temperatura 7.4 del 21-10-2021 06:00, Menor que la Mínima 7.5 21-10-2021 12:00 7.4 -- 7.5 2021-10-21 11:47:00
2 2021-10-31 12:00:00 Temperatura 10.8 del 31-10-2021 03:00, Menor que la Mínima 11.5 31-10-2021 12:00 10.8 -- 11.5 2021-10-31 11:50:00
2 2021-11-08 12:00:00 Temperatura 8.4 del 08-11-2021 06:00, Menor que la Mínima 9.0 08-11-2021 12:00 8.4 -- 9.0 2021-11-08 12:15:00
2 2021-11-10 12:00:00 Temperatura 6.8 del 10-11-2021 09:00, Menor que la Mínima 8.2 10-11-2021 12:00 6.8 -- 8.2 2021-11-10 11:53:00
2 2021-11-23 12:00:00 Temperatura 9.8 del 23-11-2021 09:00, Menor que la Mínima 10.2 23-11-2021 12:00 9.8 -- 10.2 2021-11-23 12:40:00
2 2021-11-28 12:00:00 Temperatura 9.2 del 28-11-2021 09:00, Menor que la Mínima 10.5 28-11-2021 12:00 9.2 -- 10.5 2021-11-28 12:19:00
2 2021-12-06 12:00:00 Temperatura 9.8 del 06-12-2021 09:00, Menor que la Mínima 10.2 06-12-2021 12:00 9.8 -- 10.2 2021-12-06 12:23:00
2 2021-12-08 12:00:00 Temperatura 10.4 del 08-12-2021 06:00, Menor que la Mínima 10.5 08-12-2021 12:00 10.4 -- 10.5 2021-12-08 12:34:00
2 2021-12-09 12:00:00 Temperatura 11.4 del 09-12-2021 09:00, Menor que la Mínima 11.6 09-12-2021 12:00 11.4 -- 11.6 2021-12-09 11:52:00
2 2021-12-21 12:00:00 Temperatura 10.4 del 21-12-2021 06:00, Menor que la Mínima 10.5 21-12-2021 12:00 10.4 -- 10.5 2021-12-21 11:49:00
2 2022-01-01 12:00:00 Temperatura 11.5 del 01-01-2022 03:00, Menor que la Mínima 11.8 01-01-2022 12:00 11.5 -- 11.8 2022-01-01 11:58:00
2 2022-01-01 12:00:00 Temperatura 11.5 del 01-01-2022 03:00, Menor que la Mínima 11.8 01-01-2022 12:00 11.5 -- 11.8 2022-01-01 11:58:00
2 2022-01-03 12:00:00 Temperatura 11.2 del 03-01-2022 09:00, Menor que la Mínima 11.5 03-01-2022 12:00 11.2 -- 11.5 2022-01-03 12:10:00
2 2022-01-13 12:00:00 Temperatura 11.5 del 13-01-2022 06:00, Menor que la Mínima 12.0 13-01-2022 12:00 11.5 -- 12.0 2022-01-13 12:27:00
2 2022-01-18 12:00:00 Temperatura 10.0 del 18-01-2022 09:00, Menor que la Mínima 10.5 18-01-2022 12:00 10.0 -- 10.5 2022-01-18 12:06:00
2 2022-02-02 12:00:00 Temperatura 12.2 del 02-02-2022 03:00, Menor que la Mínima 12.5 02-02-2022 12:00 12.2 -- 12.5 2022-02-02 12:13:00
2 2022-02-03 12:00:00 Temperatura 13.2 del 03-02-2022 03:00, Menor que la Mínima 13.8 03-02-2022 12:00 13.2 -- 13.8 2022-02-03 12:06:00
2 2022-02-10 12:00:00 Temperatura 10.0 del 10-02-2022 03:00, Menor que la Mínima 10.5 10-02-2022 12:00 10.0 -- 10.5 2022-02-10 11:59:00
2 2022-02-21 12:00:00 Temperatura 13.8 del 21-02-2022 09:00, Menor que la Mínima 15.0 21-02-2022 12:00 13.8 -- 15.0 2022-02-21 12:11:00
2 2022-03-01 12:00:00 Temperatura 12.0 del 01-03-2022 03:00, Menor que la Mínima 13.0 01-03-2022 12:00 12.0 -- 13.0 2022-03-01 12:31:00
2 2022-03-23 12:00:00 Temperatura 7.0 del 23-03-2022 03:00, Menor que la Mínima 10.0 23-03-2022 12:00 7.0 -- 10.0 2022-03-23 17:35:00
2 2022-03-27 12:00:00 Temperatura 10.2 del 27-03-2022 06:00, Menor que la Mínima 11.3 27-03-2022 12:00 10.2 -- 11.3 2022-03-27 11:54:00
2 2022-03-29 12:00:00 Temperatura 8.9 del 29-03-2022 03:00, Menor que la Mínima 9.0 29-03-2022 12:00 8.9 -- 9.0 2022-03-29 12:40:00
2 2022-03-31 12:00:00 Temperatura 9.2 del 31-03-2022 06:00, Menor que la Mínima 10.0 31-03-2022 12:00 9.2 -- 10.0 2022-03-31 17:02:00
2 2022-04-02 12:00:00 Temperatura 11.0 del 02-04-2022 03:00, Menor que la Mínima 12.0 02-04-2022 12:00 11.0 -- 12.0 2022-04-02 12:35:00
2 2022-04-30 12:00:00 Temperatura 9.0 del 30-04-2022 03:00, Menor que la Mínima 10.0 30-04-2022 12:00 9.0 -- 10.0 2022-04-30 12:23:00
2 2022-06-07 12:00:00 Temperatura 7.6 del 07-06-2022 06:00, Menor que la Mínima 7.8 07-06-2022 12:00 7.6 -- 7.8 2022-06-07 12:04:00
2 2022-07-21 12:00:00 Temperatura 5.1 del 21-07-2022 03:00, Menor que la Mínima 5.4 21-07-2022 12:00 5.1 -- 5.4 2022-07-21 11:59:00
2 2023-01-08 12:00:00 Temperatura 12.0 del 08-01-2023 06:00, Menor que la Mínima 12.2 08-01-2023 12:00 12.0 -- 12.2 2023-01-08 12:13:00
2 2023-02-10 12:00:00 Temperatura 13.2 del 10-02-2023 03:00, Menor que la Mínima 13.3 10-02-2023 12:00 13.2 -- 13.3 2023-02-10 11:49:00
2 2023-05-28 12:00:00 Temperatura 5.0 del 28-05-2023 09:00, Menor que la Mínima 5.2 28-05-2023 12:00 5.0 -- 5.2 2023-05-28 12:23:00
2 2023-07-23 12:00:00 Temperatura 4.7 del 23-07-2023 09:00, Menor que la Mínima 4.9 23-07-2023 12:00 4.7 -- 4.9 2023-07-23 12:13:00
2 2023-10-28 12:00:00 Temperatura 7.6 del 28-10-2023 09:00, Menor que la Mínima 7.8 28-10-2023 12:00 7.6 -- 7.8 2023-10-28 12:14:00
2 2023-11-09 12:00:00 Temperatura 7.4 del 09-11-2023 09:00, Menor que la Mínima 7.9 09-11-2023 12:00 7.4 -- 7.9 2023-11-09 11:49:00
2 2023-11-12 12:00:00 Temperatura 5.2 del 12-11-2023 09:00, Menor que la Mínima 5.9 12-11-2023 12:00 5.2 -- 5.9 2023-11-12 12:10:00
2 2023-11-17 12:00:00 Temperatura 6.4 del 17-11-2023 09:00, Menor que la Mínima 6.5 17-11-2023 12:00 6.4 -- 6.5 2023-11-17 12:20:00
2 2023-11-25 12:00:00 Temperatura 7.8 del 25-11-2023 09:00, Menor que la Mínima 8.0 25-11-2023 12:00 7.8 -- 8.0 2023-11-25 12:04:00
2 2023-11-27 12:00:00 Temperatura 9.0 del 27-11-2023 03:00, Menor que la Mínima 9.1 27-11-2023 12:00 9.0 -- 9.1 2023-11-27 11:56:00
2 2023-12-17 12:00:00 Temperatura 9.0 del 17-12-2023 09:00, Menor que la Mínima 9.2 17-12-2023 12:00 9.0 -- 9.2 2023-12-17 12:25:00
Errores del Nivel 76
Informe generado el 23-02-2024 10:57
Requerimiento: RE6001